QPF
0.11 0.27 0.56 0.31 0.09 0.00 0.00 0.00 0.00 0.00 0.00 0.00 0.00 0.00 0.00 0.00 0.00 0.00 0.00 0.00 0.00 0.00 0.00 0.00 0.00 0.00 0.00 0.00 0.00 0.00 0.00 0.00
0.21 0.24 0.52 0.40 0.06 0.00 0.00 0.00 0.00 0.00 0.00 0.00 0.00 0.00 0.00 0.00 0.00 0.00 0.00 0.00 0.00 0.00 0.00 0.00 0.00 0.00 0.00 0.00 0.00 0.00 0.00 0.00
0.47 0.19 0.24 0.20 0.05 0.00 0.00 0.00 0.00 0.00 0.00 0.00 0.00 0.00 0.00 0.00 0.00 0.00 0.00 0.00 0.00 0.00 0.00 0.00 0.00 0.00 0.00 0.00 0.00 0.00 0.00 0.00
0.01 0.06 0.09 0.11 0.07 0.01 0.00 0.00 0.00 0.00 0.00 0.00 0.00 0.00 0.00 0.00 0.00 0.00 0.00 0.00 0.00 0.00 0.00 0.00 0.00 0.00 0.00 0.00 0.00 0.00 0.00 0.00
0.02 0.06 0.12 0.08 0.10 0.05 0.00 0.00 0.00 0.00 0.00 0.00 0.00 0.00 0.00 0.00 0.00 0.00 0.00 0.00 0.00 0.00 0.00 0.00 0.00 0.00 0.00 0.00 0.00 0.00 0.00 0.00
0.00 0.01 0.04 0.04 0.06 0.02 0.00 0.00 0.00 0.00 0.00 0.00 0.00 0.00 0.00 0.00 0.00 0.00 0.00 0.00 0.00 0.00 0.00 0.00 0.00 0.00 0.00 0.00 0.00 0.00 0.00 0.00
0.00 0.00 0.00 0.03 0.02 0.00 0.00 0.00 0.00 0.00 0.00 0.00 0.00 0.00 0.00 0.00 0.00 0.00 0.00 0.00 0.00 0.00 0.00 0.00 0.00 0.00 0.00 0.00 0.00 0.00 0.00 0.00
0.00 0.00 0.00 0.02 0.00 0.00 0.00 0.00 0.00 0.00 0.00 0.00 0.00 0.00 0.00 0.00 0.00 0.00 0.00 0.00 0.00 0.00 0.00 0.00 0.00 0.00 0.00 0.00 0.00 0.00 0.00 0.00
0.00 0.00 0.00 0.00 0.00 0.00 0.00 0.00 0.00 0.00 0.00 0.01 0.00 0.00 0.00 0.00 0.00 0.00 0.00 0.00 0.00 0.00 0.00 0.00 0.00 0.00 0.00 0.00 0.00 0.00 0.00 0.00
0.00 0.00 0.00 0.00 0.00 0.00 0.00 0.00 0.00 0.01 0.00 0.00 0.00 0.00 0.00 0.00 0.00 0.00 0.00 0.00 0.00 0.00 0.00 0.00 0.00 0.00 0.00 0.00 0.00 0.00 0.00 0.00
0.00 0.00 0.00 0.00 0.00 0.00 0.00 0.00 0.00 0.01 0.01 0.00 0.00 0.00 0.00 0.00 0.00 0.00 0.00 0.00 0.00 0.00 0.00 0.00 0.00 0.00 0.00 0.00 0.00 0.00 0.00 0.00
0.00 0.00 0.00 0.00 0.00 0.00 0.00 0.00 0.00 0.02 0.02 0.00 0.00 0.00 0.00 0.00 0.00 0.00 0.00 0.00 0.00 0.00 0.00 0.00 0.00 0.00 0.00 0.00 0.00 0.00 0.00 0.00
0.00 0.00 0.00 0.00 0.00 0.00 0.00 0.00 0.02 0.03 0.01 0.00 0.00 0.00 0.00 0.00 0.00 0.00 0.00 0.00 0.00 0.00 0.00 0.00 0.00 0.00 0.00 0.00 0.00 0.00 0.00 0.00
0.00 0.00 0.00 0.00 0.00 0.00 0.00 0.01 0.04 0.05 0.02 0.00 0.00 0.00 0.00 0.00 0.00 0.00 0.00 0.00 0.00 0.00 0.00 0.00 0.00 0.00 0.00 0.00 0.00 0.00 0.00 0.00
0.00 0.00 0.00 0.00 0.00 0.00 0.00 0.07 0.04 0.01 0.01 0.00 0.00 0.00 0.00 0.00 0.00 0.00 0.00 0.00 0.00 0.00 0.00 0.00 0.00 0.00 0.00 0.00 0.00 0.00 0.00 0.00
0.00 0.00 0.00 0.00 0.00 0.00 0.00 0.02 0.02 0.00 0.00 0.00 0.00 0.00 0.00 0.00 0.00 0.00 0.00 0.00 0.00 0.00 0.00 0.00 0.00 0.00 0.00 0.00 0.00 0.00 0.00 0.00
0.00 0.00 0.00 0.00 0.00 0.00 0.00 0.00 0.03 0.01 0.00 0.00 0.00 0.00 0.00 0.00 0.00 0.00 0.00 0.00 0.00 0.00 0.00 0.00 0.00 0.00 0.00 0.00 0.00 0.00 0.00 0.00
0.00 0.00 0.00 0.00 0.01 0.03 0.01 0.01 0.01 0.00 0.00 0.00 0.00 0.00 0.00 0.00 0.00 0.00 0.00 0.00 0.00 0.01 0.01 0.00 0.00 0.00 0.00 0.00 0.00 0.00 0.00 0.00
0.00 0.00 0.00 0.00 0.00 0.02 0.05 0.03 0.03 0.02 0.01 0.01 0.02 0.02 0.01 0.01 0.00 0.00 0.00 0.01 0.01 0.00 0.00 0.00 0.00 0.00 0.00 0.00 0.00 0.00 0.00 0.00
0.00 0.00 0.00 0.02 0.03 0.02 0.07 0.12 0.11 0.08 0.05 0.03 0.02 0.02 0.01 0.01 0.00 0.00 0.00 0.00 0.00 0.00 0.00 0.00 0.00 0.00 0.00 0.00 0.00 0.00 0.00 0.00
MSLP
1017.64 1018.39 1019.05 1020.25 1020.25 1019.95 1020.39 1020.81 1020.45 1020.68 1021.16 1021.63 1021.89 1022.49 1022.54 1022.81 1022.96 1023.36 1023.61 1023.73 1023.84 1024.13 1024.34 1024.39 1024.84 1025.05 1025.08 1025.05 1025.10 1025.23 1024.80 1024.83
1018.32 1018.67 1019.10 1019.37 1019.77 1021.34 1021.40 1020.86 1020.93 1021.03 1021.62 1022.00 1022.41 1022.91 1023.06 1023.07 1023.28 1023.45 1023.71 1023.99 1024.09 1024.42 1024.58 1024.81 1025.19 1025.36 1025.42 1025.50 1025.58 1025.57 1025.31 1025.11
1019.39 1018.15 1019.44 1019.72 1019.96 1021.49 1021.53 1021.08 1021.41 1021.84 1021.92 1022.28 1022.70 1023.21 1023.35 1023.31 1023.53 1023.77 1023.98 1024.31 1024.63 1024.79 1025.07 1025.46 1025.58 1025.55 1025.71 1025.75 1025.51 1025.70 1025.66 1025.63
1019.36 1020.07 1020.26 1020.04 1020.33 1021.35 1021.49 1021.72 1021.45 1022.03 1022.25 1022.59 1022.91 1023.63 1023.54 1023.84 1023.98 1024.16 1024.26 1024.70 1025.03 1025.25 1025.53 1025.75 1025.67 1025.72 1025.89 1026.12 1026.04 1026.05 1026.12 1025.86
1020.31 1020.31 1020.73 1021.30 1021.46 1021.73 1022.01 1021.97 1022.45 1022.68 1022.75 1022.76 1023.00 1023.67 1023.76 1023.72 1024.17 1024.32 1024.62 1024.99 1025.11 1025.48 1025.60 1025.88 1026.12 1026.25 1026.31 1026.49 1026.43 1026.28 1026.45 1026.36
1020.48 1020.72 1021.02 1021.61 1022.14 1022.35 1022.52 1022.66 1022.91 1022.82 1022.88 1023.14 1023.48 1023.72 1024.22 1024.41 1024.29 1024.61 1025.07 1025.30 1025.54 1025.62 1026.01 1026.26 1026.45 1026.60 1026.63 1026.86 1026.92 1026.74 1026.74 1026.68
1021.09 1021.14 1021.43 1021.65 1021.96 1022.11 1022.53 1022.57 1022.33 1022.56 1022.88 1023.18 1023.65 1023.85 1024.28 1024.46 1024.81 1024.93 1025.18 1025.56 1025.71 1025.84 1026.07 1026.21 1026.65 1026.75 1026.89 1027.14 1027.36 1027.30 1027.20 1027.02
1021.07 1021.29 1021.35 1021.24 1021.60 1022.02 1022.17 1022.07 1022.43 1022.85 1023.10 1023.49 1023.77 1023.85 1024.18 1024.66 1024.87 1024.95 1025.36 1025.70 1025.77 1026.01 1026.15 1026.57 1026.85 1027.16 1027.49 1027.63 1027.79 1027.73 1027.56 1027.44
1020.60 1020.94 1021.08 1021.25 1021.42 1021.73 1021.94 1022.08 1022.33 1022.76 1023.11 1023.32 1023.68 1023.92 1024.40 1024.61 1024.85 1025.08 1025.61 1026.03 1025.97 1026.30 1026.68 1026.98 1027.24 1027.53 1027.91 1028.06 1028.03 1028.18 1028.00 1027.95
1020.48 1020.57 1020.92 1021.23 1021.38 1021.47 1021.64 1021.90 1022.31 1022.62 1022.97 1023.36 1023.81 1024.13 1024.36 1024.76 1024.95 1025.25 1025.88 1026.08 1026.21 1026.33 1026.66 1027.02 1027.49 1027.64 1027.99 1028.20 1028.37 1028.41 1028.41 1028.47
1020.11 1020.36 1020.54 1020.84 1021.18 1021.35 1021.73 1022.08 1022.37 1022.57 1023.08 1023.34 1023.89 1024.07 1024.65 1024.88 1024.95 1025.19 1025.62 1026.34 1026.51 1026.55 1027.03 1027.18 1027.51 1028.09 1028.23 1028.55 1028.72 1028.69 1028.74 1028.72
1019.62 1020.08 1020.45 1020.77 1020.96 1021.46 1021.93 1022.20 1022.34 1023.07 1023.17 1023.22 1023.65 1024.12 1024.70 1025.13 1025.13 1025.37 1025.72 1026.51 1026.60 1026.79 1027.17 1027.63 1027.72 1028.10 1028.24 1028.64 1028.89 1029.03 1028.91 1028.93
1019.04 1019.59 1020.04 1020.59 1021.03 1021.36 1021.80 1021.81 1022.56 1022.98 1023.11 1023.39 1023.77 1024.24 1024.75 1024.77 1025.19 1025.68 1026.13 1026.23 1026.58 1027.04 1027.24 1027.63 1028.16 1028.58 1028.37 1028.71 1028.93 1029.08 1029.03 1028.88
1018.76 1019.05 1019.49 1020.05 1020.35 1020.97 1021.48 1021.94 1022.69 1023.06 1023.20 1023.47 1023.71 1024.11 1024.47 1024.92 1025.33 1025.93 1026.03 1026.28 1026.73 1027.03 1027.37 1027.62 1028.10 1028.39 1027.82 1028.01 1028.01 1028.53 1028.64 1028.73
1017.85 1018.46 1019.01 1019.49 1019.89 1020.69 1021.49 1022.27 1022.73 1022.96 1023.10 1023.30 1023.75 1024.02 1024.24 1024.97 1025.67 1025.89 1026.13 1026.39 1026.81 1027.23 1027.59 1027.45 1027.17 1027.98 1027.91 1027.45 1027.62 1027.44 1028.11 1028.49
1017.47 1018.05 1018.57 1019.24 1019.65 1020.16 1020.52 1020.86 1021.42 1021.82 1022.56 1023.18 1023.64 1024.06 1024.25 1024.77 1025.39 1025.80 1026.07 1026.46 1026.81 1027.16 1027.56 1027.52 1027.71 1027.48 1027.81 1027.92 1027.87 1027.83 1027.72 1027.58
1016.87 1017.48 1018.04 1018.53 1019.13 1019.56 1019.99 1020.49 1020.93 1021.81 1022.78 1023.22 1023.70 1024.13 1024.52 1024.69 1025.04 1025.34 1025.58 1025.84 1026.34 1026.70 1027.76 1027.35 1027.14 1027.09 1026.97 1027.41 1027.83 1028.06 1028.22 1028.00
1016.21 1016.74 1017.34 1017.95 1018.56 1018.95 1019.42 1020.06 1020.70 1021.61 1022.26 1022.74 1023.38 1023.86 1024.40 1024.75 1024.91 1025.03 1025.36 1025.58 1025.85 1026.21 1026.24 1027.16 1027.05 1026.91 1027.22 1027.39 1027.48 1027.55 1027.50 1027.72
1015.44 1016.14 1016.62 1017.38 1017.93 1018.51 1018.99 1019.58 1020.07 1020.62 1021.47 1022.07 1022.62 1022.96 1023.60 1024.20 1024.52 1024.82 1025.06 1025.62 1026.10 1025.90 1025.98 1026.65 1026.44 1026.54 1026.98 1027.12 1027.38 1027.51 1027.70 1027.80
1014.55 1015.07 1015.75 1016.48 1017.22 1017.63 1018.36 1019.16 1019.75 1020.34 1021.22 1021.94 1022.24 1022.52 1023.18 1023.71 1024.18 1024.55 1025.19 1025.66 1025.51 1026.34 1025.77 1025.94 1026.23 1026.55 1026.83 1027.01 1027.16 1027.36 1027.66 1027.77
Thickness
5656 5648 5642 5628 5626 5633 5635 5632 5637 5637 5634 5632 5631 5628 5630 5628 5628 5627 5627 5627 5627 5626 5625 5627 5620 5618 5618 5618 5616 5613 5612 5609
5644 5636 5632 5634 5630 5616 5617 5627 5628 5629 5625 5625 5624 5620 5622 5625 5624 5625 5625 5624 5624 5622 5621 5620 5615 5613 5613 5610 5608 5606 5604 5605
5630 5631 5630 5624 5621 5607 5610 5620 5618 5615 5619 5620 5618 5615 5617 5621 5622 5622 5621 5620 5618 5617 5615 5610 5609 5610 5607 5605 5605 5598 5595 5592
5624 5620 5619 5620 5613 5608 5610 5611 5615 5613 5613 5614 5614 5610 5615 5614 5616 5618 5618 5615 5613 5611 5609 5607 5606 5604 5601 5596 5594 5592 5587 5588
5613 5613 5609 5602 5603 5604 5605 5606 5604 5604 5607 5610 5613 5610 5614 5618 5616 5615 5613 5610 5609 5605 5605 5601 5599 5595 5594 5590 5587 5586 5580 5578
5606 5604 5602 5598 5594 5596 5595 5596 5596 5601 5607 5608 5608 5608 5607 5608 5611 5611 5606 5604 5602 5603 5598 5596 5593 5590 5587 5582 5578 5575 5571 5569
5596 5598 5596 5595 5594 5596 5593 5599 5602 5605 5605 5607 5604 5607 5605 5604 5604 5605 5603 5599 5597 5596 5593 5590 5584 5582 5579 5573 5566 5563 5560 5557
5600 5598 5597 5601 5600 5598 5598 5601 5603 5604 5605 5606 5605 5607 5606 5602 5601 5602 5598 5593 5594 5590 5587 5581 5577 5572 5565 5560 5554 5550 5548 5545
5605 5602 5600 5602 5603 5601 5602 5606 5607 5605 5605 5607 5603 5605 5602 5601 5598 5597 5592 5588 5589 5584 5578 5572 5567 5560 5553 5548 5543 5539 5536 5532
5605 5607 5607 5605 5607 5608 5609 5608 5606 5605 5606 5604 5601 5599 5599 5595 5593 5592 5587 5584 5581 5576 5570 5564 5555 5551 5544 5538 5533 5528 5525 5521
5611 5612 5611 5610 5609 5610 5608 5606 5603 5605 5602 5601 5597 5598 5592 5589 5590 5590 5586 5575 5570 5566 5558 5553 5547 5539 5533 5527 5522 5518 5514 5510
5618 5615 5613 5610 5610 5607 5605 5603 5605 5598 5598 5599 5598 5594 5589 5584 5587 5584 5578 5566 5562 5556 5549 5541 5538 5530 5525 5518 5512 5507 5503 5499
5622 5618 5616 5611 5608 5606 5603 5604 5600 5597 5596 5594 5593 5590 5586 5586 5580 5573 5564 5561 5555 5547 5541 5534 5525 5517 5514 5507 5501 5497 5493 5489
5623 5622 5619 5614 5612 5607 5603 5602 5596 5592 5593 5593 5591 5589 5585 5578 5571 5561 5559 5554 5547 5539 5533 5526 5517 5509 5511 5505 5502 5494 5486 5479
5628 5624 5619 5616 5612 5606 5603 5597 5594 5592 5592 5590 5586 5584 5580 5570 5559 5555 5552 5546 5539 5530 5522 5519 5516 5503 5499 5501 5495 5494 5478 5469
5631 5626 5621 5615 5612 5609 5607 5607 5602 5598 5592 5586 5580 5576 5571 5562 5555 5550 5544 5537 5530 5521 5512 5506 5501 5500 5491 5484 5479 5474 5471 5467
5633 5628 5623 5620 5615 5613 5610 5606 5603 5595 5585 5580 5574 5567 5561 5556 5550 5545 5539 5532 5524 5516 5503 5500 5496 5492 5487 5477 5467 5458 5450 5448
5634 5630 5626 5622 5618 5615 5611 5606 5599 5591 5584 5579 5570 5563 5554 5548 5543 5538 5531 5525 5518 5512 5507 5494 5488 5483 5474 5464 5457 5450 5444 5435
5638 5633 5629 5623 5620 5615 5610 5604 5598 5592 5583 5575 5567 5562 5554 5546 5539 5532 5524 5515 5506 5503 5497 5485 5480 5473 5462 5454 5444 5436 5426 5418
5642 5638 5633 5627 5621 5617 5610 5602 5594 5587 5577 5569 5563 5559 5550 5542 5534 5525 5515 5507 5502 5489 5487 5478 5470 5460 5449 5440 5431 5421 5411 5402